Regional Weather Roundup
Issued by NWS

Home | Current Version | Previous Version | Text Only | Print | Product List | Glossary Off
Versions: 1 2 3 4 5 6 7 8 9 10 11 12 13 14 15 16 17 18 19 20 21 22 23 24 25 26 27 28 29 30 31 32 33 34 35 36 37 38 39 40 41 42 43 44 45 46 47 48 49 50

636
ASUS43 KMPX 220210
RWRMN
WEATHER ROUNDUP FOR MINNESOTA
NATIONAL WEATHER SERVICE TWIN CITIES/CHANHASSEN MN
900 PM CDT THU SEP 21 2017


NOTE: "FAIR" INDICATES FEW OR NO CLOUDS BELOW 12,000 FEET WITH NO
SIGNIFICANT WEATHER AND/OR OBSTRUCTIONS TO VISIBILITY. N/A MEANS
CURRENT SKY AND/OR WEATHER CONDITIONS ARE NOT AVAILABLE.

MNZ060>063-068>070-220300-
   Twin Cities Metro

CITY           SKY/WX    TMP DP  RH WIND       PRES   REMARKS
TWIN CITIES    PTCLDY    79  69  71 SE14      29.80R
ST PAUL        MOCLDY    76  68  76 SE12      29.81R
CRYSTAL        PTCLDY    78  65  63 SE9       29.79R
BLAINE         MOCLDY    79  68  69 SE12G18   29.80R
LAKEVILLE      PTCLDY    72  68  88 SE3       29.82R
EDEN PRAIRIE   MOCLDY    80  69  69 SE12      29.79R
SOUTH ST PAUL  PTCLDY    78  66  67 SE7       29.81R
LAKE ELMO      MOCLDY    77  68  73 SE9       29.84R
$$
MNZ001>005-007-008-013>017-022>024-027-028-220300-
   Northwest Minnesota

CITY           SKY/WX    TMP DP  RH WIND       PRES   REMARKS
BEMIDJI        MOCLDY    67  53  62 SE7       29.79S
HALLOCK          N/A     70  48  46 SE8       29.72S
ROSEAU         MOCLDY    70  54  56 S5        29.78R
WARROAD        CLOUDY    68  54  60 CALM      29.79S
THIEF RVR FALL CLOUDY    68  53  58 E8        29.76S
CROOKSTON      MOCLDY    72  55  56 SE8       29.74R
FOSSTON        PTCLDY    66  54  63 SE8       29.76S
DETROIT LAKES  PTCLDY    70  61  73 SE9       29.77R
MOORHEAD       CLEAR     73  63  68 SE3       29.72R
PARK RAPIDS    MOCLDY    70  60  70 SE7       29.79R
MAHNOMEN       MOCLDY    69  57  65 SE12      29.74S
$$
MNZ006-009>011-018-025>026-220300-
   North Central Minnesota

CITY           SKY/WX    TMP DP  RH WIND       PRES   REMARKS
BAUDETTE       MOCLDY    66  51  58 SE7       29.79R
FLAG ISLAND    CLOUDY    66  54  63 SE8       29.78R
INTL FALLS     MOCLDY    64  51  62 SE9       29.82S
WASKISH        PTCLDY    64  54  68 SE7       29.79S
BIG FORK       PTCLDY    66  57  72 SE7G16    29.84S
LONGVILLE      PTCLDY    66  59  77 SE5       29.82S
GRAND RAPIDS   CLOUDY    65  58  78 SE9       29.87S
CRANE LAKE     MOCLDY    61  54  77 SE3       29.89S
ORR            MOCLDY    63  52  67 SE9       29.85R
COOK           CLOUDY    63  54  72 SE3       29.89R
WALKER         CLOUDY    67  58  71 E5        29.80S
$$
MNZ012-019>021-037-220300-
   Northeast Minnesota

CITY           SKY/WX    TMP DP  RH WIND       PRES   REMARKS
DULUTH         CLOUDY    59  55  87 E13       29.91S
ELY            MOCLDY    59  50  72 SE6       29.91S
HIBBING        CLOUDY    60  52  74 SE12      29.89R
EVELETH        MOCLDY    60  47  62 E5        29.91S
DULUTH HARBOR  CLOUDY    61  57  88 NE17      29.91F
TWO HARBORS    MOCLDY    64  54  68 E8        29.92R
SILVER BAY     CLOUDY    61  50  67 NE9       29.92S
GRAND MARAIS     N/A     61  45  55 NE10G17   29.95S
$$
MNZ029>031-032-039>041-046>048-054>057-064-220300-
   West Central Minnesota

CITY           SKY/WX    TMP DP  RH WIND       PRES   REMARKS
FERGUS FALLS   PTCLDY    73  66  78 SE10      29.72R
WHEATON        CLEAR     72  66  83 SE8       29.72R
MORRIS         CLEAR     75  70  83 SE12      29.72R
ALEXANDRIA     PTCLDY    73  68  84 SE12      29.78R
ELBOW LAKE     CLOUDY    73  68  83 SE10      29.74R
WADENA         PTCLDY    70  63  78 SE7       29.78R
GLENWOOD       CLEAR     72  68  88 SE9       29.78R
APPLETON       CLEAR     79  70  73 SE8       29.72R
BENSON         PTCLDY    77  70  78 S13       29.75S
ORTONVILLE     MOCLDY    75  70  83 NE7       29.71R
MADISON        PTCLDY    79  72  78 SE8       29.72R
WILLMAR        FAIR      75  70  83 SE7       29.78R
$$
MNZ033>034-036-042>043-049>051-058-059-220300-
   Central Minnesota

CITY           SKY/WX    TMP DP  RH WIND       PRES   REMARKS
ST CLOUD       PTCLDY    74  69  85 E8        29.79R
SAUK CENTRE    MOCLDY    72  67  86 E6        29.79R
PAYNESVILLE    CLEAR     74  69  84 E5        29.79R
AITKIN         MOCLDY    66  61  82 E5        29.83S
PINE RIVER     MOCLDY    66  59  77 SE8       29.84S
BRAINERD       PTCLDY    71  65  81 SE9       29.81S
STAPLES        PTCLDY    72  63  73 SE5       29.79S
LITTLE FALLS   MOCLDY    72  61  68 E8        29.80R
LITCHFIELD     CLEAR     72  70  94 E5        29.79R
BUFFALO        PTCLDY    76  68  76 E5        29.80S
MAPLE LAKE     PTCLDY    76  70  82 SE3       29.80S
HUTCHINSON     CLEAR     74  71  92 SE5       29.79R
$$
MNZ037-044-045-052-053-220300-
   East Central Minnesota

CITY           SKY/WX    TMP DP  RH WIND       PRES   REMARKS
PRINCETON      MOCLDY    75  68  78 E7        29.81R
MORA           PTCLDY    70  64  83 E6        29.85R
CAMBRIDGE      PTCLDY    77  64  65 E7        29.81S
RUSH CITY      PTCLDY    72  67  84 E5        29.83F
MOOSE LAKE     MOCLDY    61  57  88 NE5       29.86S
HINCKLEY       FAIR      72  68  88 E9        29.85S
CLOQUET        CLOUDY    61  55  82 E8        29.90S
MCGREGOR       MOCLDY    63  59  88 E8        29.86S
$$
MNZ071>073-080-081-089-090-097-098-220300-
   Southwest Minnesota

CITY           SKY/WX    TMP DP  RH WIND       PRES   REMARKS
MONTEVIDEO     MOCLDY    77  70  78 S6        29.74R
GRANITE FALLS  CLOUDY    79  71  78 E6        29.75S
CANBY          CLEAR     75  70  86 SE3       29.73S
MARSHALL       CLEAR     76  70  82 E7        29.74R
REDWOOD FALLS  PTCLDY    76  69  79 SE6       29.75R
OLIVIA         MOCLDY    77  70  78 SE6       29.76R
PIPESTONE      CLEAR     77  72  83 S9        29.75R
WINDOM         CLEAR     75  70  83 SE7       29.78R
JACKSON        CLEAR     77  70  78 SE6       29.79S
TRACY          CLEAR     78  72  81 S7        29.74S
SLAYTON        CLEAR     74  69  83 SE8       29.77R
$$
MNZ065>067-074>077-082>085-091>093-220300-
   South Central Minnesota

CITY           SKY/WX    TMP DP  RH WIND       PRES   REMARKS
MANKATO        MOCLDY    80  70  71 S10       29.80R
NEW ULM        PTCLDY    79  68  69 SE7       29.77R
ST JAMES       PTCLDY    79  70  73 SE9       29.79R
FAIRMONT       CLEAR     77  71  82 SE10      29.80R
GLENCOE        PTCLDY    76  73  91 SE6       29.78R
FARIBAULT      CLOUDY    79  70  73 SE6       29.82S
OWATONNA       PTCLDY    81  70  69 S9        29.83S
WASECA         MOCLDY    77  68  73 SE6       29.83R
ALBERT LEA     CLOUDY    84  72  65 S12G17    29.84R
$$
MNZ078>079-086>088-094>096-220300-
   Southeast Minnesota

CITY           SKY/WX    TMP DP  RH WIND       PRES   REMARKS
ROCHESTER      CLEAR     74  65  73 SE10      29.87R
RED WING       CLEAR     79  63  57 SE9       29.83R
STANTON        MOCLDY    79  66  64 SE9       29.81R
DODGE CENTER   MOCLDY    75  66  73 SE7       29.86R
WINONA         CLEAR     73  63  68 SE7       29.88R
AUSTIN         PTCLDY    79  68  69 S6        29.86R
PRESTON        CLEAR     75  63  65 S14       29.90R
$$
ABBREVIATIONS USED IN REMARKS
   TC - TEMPERATURES IN CELSIUS
  WCI - WIND CHILL INDEX
   HX - HEAT INDEX
  VSB - VISIBILITY
$$




USA.gov is the U.S. government's official web portal to all federal, state and local government web resources and services.